sat.trackr.live / text

‹ back to catalog

STARLINK-1812

NORAD 47126 · 2020-088E

PAYLOAD ACTIVE UNKNOWN

§ Identity

Operator
Country
US
Launch date
2020-11-25
Launch site
AFETR
Launch vehicle
Mass (kg)
RCS (m²)

Purposes: comms

External: N2YO · Heavens-Above · Gunter

§ Orbital elements

Epoch: 2026-09-19T21:19:25.294080Z

Period
94.34 min
Inclination
53.0968°
Eccentricity
0.0003401
Mean motion
15.26405997 rev/d
Perigee alt
484.2 km
Apogee alt
488.9 km
Semi-major
6,864.7 km
B*
1.0490e-3
RAAN
128.7506°
Arg perigee
117.4872°
Mean anomaly
242.6472°
Rev number
32,142

§ Raw data

STARLINK-18121 47126U 20088E   26262.88848720  .00027426  00000+0  10490-2 0  99972 47126  53.0968 128.7506 0003401 117.4872 242.6472 15.26405997321427

JSON: /api/v1/satellites/47126 · /tle

For live sub-satellite position, see the globe view (requires WebGL).

§ Visibility from observer

Set your observer location to see the next 7 days of passes ≥ 10°. The values pass through the URL so the page stays shareable.

No JS? Fill the form by hand. The geolocation button needs JavaScript.